SCOUT X-4 R/B, 933

Orbit data source: Space-Track

SCOUT X-4 R/B, 933 is space debris in LEO originally from a launch on Sat, 21 Nov 1964 UTC launched from the Air Force Western Test Range (AFWTR). Debris objects in space refer to the collection of defunct objects orbiting the Earth. Examples of debris include non-operational satellites, rocket bodies, and fragments generated from explosions, collisions, or faulty payload assembly.

Loading next visibility...
SCOUT X-4 R/B details
Identifier
933, 1964-076C
Orbit
LEO
Last TLE update17 hours ago
Origin
Flag of USNASA LaRC (US)
ManufacturerABL
MissionSpacecraft
Bus & MotorALTAIR, Unknown motor
Mass33 kg wet, 33 kg dry
Launch date (UTC)
1964-11-21 (60 years ago)
Launch vehicleUnknown
Launch site
Air Force Western Test Range (AFWTR)
Object type
Payload
Rocket body
Debris
Shape & HBRCyl, 1.5 m
Radar Cross Section0.687 m², Medium (>0.1 m² and < 1m²)

Expand to show TLE details & history

TLE from 17 hours ago
0 SCOUT X-4 R/B
1 00933U 64076C   25042.84259934  .00001110  00000-0  36590-3 0  9994
2 00933  81.3385 176.8606 1055062  54.4145 315.0715 12.81316333773753
Epoch: 2025-02-11T20:13Z
Definitive object data (Epoch: 2025-02-11T20:13:20.582Z)
Latitude-0.00009°
Longitude91.38321°
Altitude810.508 km
Speed7.699 km/s
True Right ascension11h 47m 26s
True Declination0° 00' 00"
Sunlit
Object was in full shadow at TLE epoch
Visualization TLE readout
Latitude3.73865°
Longitude91.39652°
Altitude757.826 km
Speed7.752 km/s
Apparent Right ascension08h 56m 56s
Apparent Declination-30° 38' 04"
Sunlit
Object is in full shadow
Visualization observer readout
Local Sidereal Time15:37:07
Azimuth250.833° W
Elevation-26.238°
Doppler factor1
Orbital elements
Apogee altitude2,147.106 km
Perigee altitude519.859 km
Semi-major axis7,711.619 km
Eccentricity0.1055062
Inclination81.3385°
RAAN176.8606°
Arg. of periapsis54.4145°
True anomaly305.70031°
Mean anomaly315.0715°
Eccentric anomaly310.47295°
Mean motion3.20498 °/min
BSTAR0.0003659
Orbital period112.33 mins
Loading maneuver chart data...
Loading historical data...
Loading historical data...
Loading historical data...
Loading historical data...
Loading historical data...
Loading historical data...
Loading historical data...

SCOUT X-4 R/B Visibility forecast

Observer location: undefined°, undefined

Span
Click to sort rows by Start time (UTC) header in descending order
Start Az.
Max El. time (UTC)
Max El. Az.
Max El.
End time (UTC)
End Az.
10 mins2025-02-12 19:14:15.606Z25.546° NE2025-02-12 19:19:15.606Z80.471° E22°2025-02-12 19:24:15.606Z120.892° SE
13 mins2025-02-12 21:07:15.606Z337.409° NNW2025-02-12 21:12:15.606Z261.621° W40.353°2025-02-12 21:20:15.606Z189.531° SSW
5 mins2025-02-13 09:50:15.606Z207.825° SW2025-02-13 09:52:15.606Z256.599° W39.114°2025-02-13 09:55:15.606Z356.553° N
|